Weather in Novyy Byt

Russia / Vladimir Oblast     55°58′27″N   41°37′20″E
temp.,
°C
wind,
m/s
gust,
m/s
humid.,
%
clouds,
%
prec.,
mm/h
press.,
hPa
HPBL,
m
3 august, tue
tue300:00+21sse4117196 0.0 1005231
03:00+19wsw31183100 0.1 1006396
06:00+19ssw3884100 0.0 1006276
09:00+22sw4672100 0.3 1007719
12:00+23wsw4562100 0.0 10081083
15:00+27wsw4645100 0.0 10072261
18:00+22w3861100 0.0 1008565
21:00+19w387013 0.0 1010228
4 august, wed
wed400:00+16w247620 0.0 101271
03:00+16w3775100 0.0 1012183
06:00+15wnw277496 0.0 1014190
09:00+21wnw34510 0.0 1014813
12:00+24wnw453791 0.0 10142536
15:00+22wsw3543100 0.0 10141260
18:00+18w2655100 0.0 1015144
21:00+15w37676 0.0 1016114
5 august, thu
thu500:00+16nw246299 0.0 101691
03:00+16nnw2359100 0.0 101756
06:00+16n1264100 0.0 101860
09:00+18nne115426 0.0 1018261
12:00+24ese023797 0.0 10181998
15:00+22ssw124788 0.0 1017528
18:00+23se234596 0.0 1016225
21:00+18se2356100 0.0 101658
6 august, fri
fri600:00+17nne2468100 0.1 101676
03:00+16ne0172100 0.1 101613
06:00+14ese3794100 1.3 1015174
09:00+14ese41094100 2.9 1015348
12:00+14se2796100 0.9 1015254
15:00+15sse3797100 4.4 1015390
18:00+15se2398100 2.8 1015176
21:00+15ene2497100 4.0 1014119
7 august, sat
sat700:00+15ne2597100 1.0 1014146
03:00+15ene3897100 1.8 1014242
06:00+15ese3996100 0.9 1014291
09:00+19sse238496 2.1 1014336
12:00+21ese2272100 0.1 1015377
15:00+24ese2356100 0.1 1015685
18:00+23ene476684 0.0 1015482
21:00+18ene5128866 0.0 1016336